Regional Weather Roundup
Issued by NWS

Home | Current Version | Previous Version | Text Only | Print | Product List | Glossary Off
Versions: 1 2 3 4 5 6 7 8 9 10 11 12 13 14 15 16 17 18 19 20 21 22 23 24 25 26 27 28 29 30 31 32 33 34 35 36 37 38 39 40 41 42 43 44 45 46 47 48 49 50

663
ASUS43 KFSD 091902
RWRSD

WEATHER ROUNDUP FOR SOUTH DAKOTA
NATIONAL WEATHER SERVICE SIOUX FALLS SD
100 PM CST TUE FEB 09 2016

NOTE: "FAIR" INDICATES FEW OR NO CLOUDS BELOW 12,000 FEET WITH NO
SIGNIFICANT WEATHER AND/OR OBSTRUCTIONS TO VISIBILITY.


SDZ001>005-009-010-012>017-092000-
NORTHWEST AND NORTH CENTRAL SOUTH DAKOTA

CITY           SKY/WX    TMP DP  RH WIND       PRES   REMARKS
BUFFALO          N/A     46  30  53 NW23G29   30.10F
FAITH            N/A     32  21  64 S8        30.17F WCI  25
MOBRIDGE       CLOUDY    33  12  41 SW9       30.18F WCI  25
$$

SDZ012>016-024>037-041>051-057-063-072>074-092000-
SOUTHWEST AND SOUTH CENTRAL SOUTH DAKOTA

CITY           SKY/WX    TMP DP  RH WIND       PRES   REMARKS
RAPID CTY ARPT CLOUDY    49  30  48 N21G28    30.17F
PIERRE         CLOUDY    31  11  43 S12       30.23F WCI  22
CUSTER         CLOUDY    43  23  45 NW15G29   30.19F
ELLSWORTH AFB  CLOUDY    49  31  49 N18       30.16F
PHILIP         CLOUDY    33  21  61 SW7       30.22F WCI  27
PINE RIDGE     CLOUDY    43  28  55 NW9       30.21F
WINNER         CLOUDY    30   9  41 SW10      30.24F WCI  21
$$

SDZ004>011-016>023-039-040-092000-
NORTHEAST SOUTH DAKOTA

CITY           SKY/WX    TMP DP  RH WIND       PRES   REMARKS
ABERDEEN       CLOUDY    30   9  41 NW9       30.24F WCI  22
WATERTOWN      CLOUDY    20   7  57 N16       30.19F WCI   6
BROOKINGS      CLOUDY    18   8  65 NW14      30.19F WCI   4
SISSETON         N/A     18   8  65 N14       30.24F WCI   4
$$

SDZ017-020-022-023-036>040-048>070-092000-
SOUTHEAST SOUTH DAKOTA

CITY           SKY/WX    TMP DP  RH WIND       PRES   REMARKS
SIOUX FALLS    CLOUDY    19   9  65 NW15      30.22F WCI   5
HURON          PTSUNNY   26  10  50 NW10      30.26F WCI  16
MITCHELL       MOSUNNY   26  11  52 NW12      30.28F WCI  16
YANKTON        CLOUDY    25   9  50 NW18      30.27F WCI  11
$$

ABBREVIATIONS USED IN REMARKS
   TC - TEMPERATURE IN CELSIUS
  WCI - WIND CHILL INDEX
   HX - HEAT INDEX
  VSB - VISIBILITY





USA.gov is the U.S. government's official web portal to all federal, state and local government web resources and services.